Theta_e
310 310 309 309 309 309 309 307 305 305 306 306 306 306 306 308 308 308 309 313 313 314 315 315 316 315 316 318 317 319 323 326 330 332 328 329 331 330 332 334 336 331 332 336 332 336 334 336 334 334 331 337 338 337
306 306 306 306 305 305 305 305 305 306 306 305 306 307 308 308 308 308 308 311 312 313 314 315 315 315 316 317 316 318 320 321 323 324 331 333 339 337 336 338 332 334 332 334 334 335 334 337 334 334 334 334 338 337
309 308 309 310 310 309 309 308 307 306 306 305 306 307 308 309 309 309 308 309 310 313 312 312 312 313 314 314 318 317 320 321 319 318 322 330 337 337 339 339 338 337 334 334 335 337 337 337 336 336 336 337 337 338
308 308 309 309 308 309 309 308 308 308 308 307 307 307 308 309 309 309 310 309 311 313 313 313 315 316 318 317 316 319 320 319 318 318 319 326 331 332 333 335 336 337 335 335 336 334 334 337 336 334 335 337 338 337
308 307 307 307 308 310 309 309 308 308 308 308 308 308 309 310 309 311 310 309 310 312 314 314 313 314 315 317 318 318 318 318 318 316 320 324 327 324 327 333 336 335 333 334 335 333 334 334 336 336 336 338 337 340
308 308 306 306 306 306 307 309 309 307 309 307 309 309 310 311 310 310 309 310 310 312 313 312 313 313 315 317 319 319 320 319 318 317 318 323 325 324 327 335 337 337 335 335 335 334 333 334 334 335 335 337 339 341
308 308 306 307 306 306 305 306 309 308 308 309 310 309 310 309 309 309 310 312 312 312 313 313 312 314 317 316 318 318 318 318 318 317 316 317 318 319 323 330 333 336 335 334 333 332 333 334 334 334 334 335 338 343
307 307 306 307 307 307 306 306 308 310 308 309 309 310 309 309 309 309 310 311 312 313 312 312 312 314 317 316 317 318 318 318 318 317 318 316 317 319 323 324 327 329 333 335 335 333 332 333 334 334 335 334 338 348
309 308 308 308 308 307 306 307 310 309 308 310 308 308 309 309 310 310 310 311 312 312 313 312 312 315 316 320 319 319 319 317 320 315 315 316 315 317 319 323 329 334 338 339 336 333 333 334 334 337 337 335 336 334
308 308 309 309 308 308 306 307 306 307 308 308 308 309 310 310 311 311 311 310 310 310 311 312 313 312 315 317 320 317 318 315 320 317 319 315 315 319 321 325 327 325 330 335 336 335 338 334 335 335 335 338 341 348
309 308 308 309 308 307 306 306 305 306 308 308 308 309 310 310 310 310 311 310 312 312 313 312 312 312 312 316 320 323 317 316 322 320 319 320 320 318 320 319 319 323 325 327 336 341 342 340 337 340 336 336 342 348
310 310 309 309 308 308 306 305 305 305 309 308 309 310 310 311 311 311 312 312 312 314 314 312 313 313 313 314 323 325 327 326 325 322 322 324 320 325 325 325 323 319 321 329 343 344 343 337 339 340 339 339 339 345
309 309 308 309 308 308 308 306 307 307 308 309 309 309 309 310 311 312 314 313 314 314 314 316 315 315 314 315 323 325 325 325 324 326 325 322 324 324 324 322 327 325 323 333 341 343 341 340 340 337 336 337 338 343
309 309 309 309 308 309 309 308 308 309 309 309 309 307 310 312 311 311 310 311 313 314 315 315 318 317 316 318 321 324 323 322 326 329 325 321 335 338 335 328 327 328 334 340 342 342 340 339 337 335 335 338 344 345
309 309 309 309 308 308 309 309 309 309 308 309 309 312 310 311 313 314 313 314 316 316 318 318 317 320 315 319 322 322 326 326 325 326 326 336 338 341 334 332 328 332 336 339 340 340 336 334 332 331 330 337 336 343
309 309 309 309 308 308 309 308 308 308 309 310 310 311 312 313 313 315 315 316 316 318 318 319 319 319 320 319 323 325 327 327 326 329 331 336 336 338 338 342 339 338 337 339 340 339 335 334 333 333 334 332 334 336
309 310 310 309 308 307 309 309 308 309 309 311 312 312 312 313 314 315 316 316 317 318 318 318 320 322 319 322 324 321 322 320 331 332 332 334 335 337 337 337 340 339 338 338 336 334 332 332 332 333 332 333 333 332
310 310 308 310 308 307 308 308 309 309 310 311 311 311 312 312 313 314 315 317 318 318 318 319 319 321 322 324 321 319 322 328 329 331 331 334 332 332 334 335 336 338 338 336 335 331 332 332 332 330 331 332 337 340
310 309 308 310 308 307 308 307 307 309 310 310 311 311 311 312 313 314 315 317 318 319 318 319 319 320 319 321 324 325 326 328 329 327 326 328 331 331 336 335 335 336 336 335 335 336 336 336 335 334 339 341 341 340
314 310 310 307 309 308 309 310 309 309 309 311 310 310 312 314 314 316 317 317 319 319 319 318 318 321 323 323 324 325 324 322 322 321 321 321 322 324 331 336 335 334 333 333 333 333 336 336 336 338 339 340 339 338
310 310 309 308 309 309 309 308 309 309 310 311 312 313 313 314 317 319 320 321 320 321 320 322 320 321 324 325 325 324 323 322 323 326 324 321 320 320 321 332 335 332 333 335 336 337 337 337 336 337 337 338 337 336
311 309 308 309 309 308 308 308 309 310 310 312 313 313 315 318 319 320 318 319 321 322 322 323 323 322 323 323 322 321 321 322 322 322 321 321 322 322 321 321 330 334 333 334 335 335 336 337 337 338 338 338 336 334
310 308 309 308 306 306 306 308 309 310 311 313 316 317 318 318 318 317 318 321 320 320 320 319 319 319 320 321 322 323 323 323 322 322 324 324 325 325 325 324 326 335 334 334 335 334 331 336 337 336 336 336 335 334
310 309 308 307 306 306 304 305 307 310 312 314 316 318 317 317 317 317 316 318 318 318 319 320 321 322 323 325 326 326 325 327 328 328 327 326 325 328 332 331 333 333 328 335 336 334 334 335 336 336 336 336 335 334
313 312 311 310 307 309 311 311 311 314 316 317 318 318 317 317 318 318 318 317 318 319 320 322 324 325 324 326 327 329 329 327 326 325 327 328 330 332 328 329 334 334 327 327 334 334 334 334 334 335 335 335 334 333
316 320 316 318 314 313 319 318 317 318 319 320 319 318 318 318 319 319 318 318 319 323 322 322 324 325 325 326 328 328 330 328 328 330 330 331 331 330 330 332 334 332 329 327 331 334 333 333 332 332 333 333 333 332
318 324 324 322 324 323 323 323 321 322 323 323 320 319 319 322 322 320 323 323 323 321 322 324 324 320 322 325 327 327 328 328 328 329 328 328 327 325 327 329 331 332 332 332 331 330 330 331 332 332 331 331 330 330
324 324 323 322 322 322 323 322 323 324 324 322 322 323 323 323 322 323 323 321 320 319 319 321 322 321 319 326 327 327 326 326 329 328 329 329 329 328 328 327 326 327 328 331 331 330 330 331 331 330 330 329 329 328
325 322 322 322 323 323 323 321 321 322 323 322 322 320 320 320 319 319 319 319 320 320 320 321 321 318 318 318 317 319 322 320 321 324 326 326 327 326 326 327 327 327 327 328 329 328 329 329 330 328 328 328 328 327
323 323 323 323 322 322 322 322 321 321 321 320 319 320 320 320 319 318 319 319 319 316 314 315 317 316 315 316 316 314 317 319 318 319 317 314 314 316 314 313 322 324 323 323 324 324 325 325 326 325 325 324 323 324
323 323 323 323 323 322 323 322 322 322 321 321 321 322 322 322 321 321 320 319 316 315 315 314 313 313 314 313 313 314 313 312 312 313 314 315 317 317 316 313 312 312 313 314 318 320 321 321 320 319 319 319 319 319
323 323 322 322 324 323 323 323 323 322 322 322 322 322 322 320 320 320 319 317 316 315 314 313 314 314 314 314 314 313 312 312 311 311 311 310 309 309 309 310 310 310 311 311 311 311 311 312 313 313 313 315 315 316
323 323 323 323 323 324 322 322 322 324 323 322 321 321 322 323 324 323 321 319 317 317 316 315 315 315 316 315 315 315 315 314 314 314 314 315 315 315 315 315 312 309 308 309 310 310 309 309 310 311 312 313 313 313
Wind_Speed
19 19 19 20 20 20 22 23 22 21 20 19 17 16 12 9 10 14 12 9 7 9 25 25 19 17 13 2 2 12 9 7 6 5 2 4 3 4 2 3 2 4 4 1 2 2 2 14 9 2 7 6 17 12
18 18 19 20 21 22 23 22 21 19 16 17 15 13 12 10 10 14 15 7 11 12 16 15 22 23 26 22 16 7 4 6 5 3 3 3 2 2 1 3 5 1 4 5 5 5 5 11 6 22 24 19 12 27
18 19 19 18 18 18 19 19 18 18 17 16 15 14 13 11 10 14 15 10 11 14 29 29 30 21 18 24 21 7 5 2 4 11 4 3 1 2 2 3 3 4 5 3 3 4 6 18 7 16 22 25 18 20
18 17 18 17 18 19 18 18 18 19 17 16 15 14 14 12 13 14 15 9 8 6 6 9 6 15 9 12 20 31 27 23 24 14 4 2 1 3 2 3 2 5 3 2 3 7 16 13 8 18 25 21 31 15
13 15 17 16 16 18 17 17 17 16 16 17 15 14 13 13 14 13 16 13 15 9 5 16 34 20 14 17 22 24 26 27 15 3 1 2 4 4 3 0 3 6 6 4 6 10 7 12 14 13 19 18 22 9
12 13 13 14 14 15 15 15 15 13 12 11 13 14 12 12 13 10 5 5 14 16 7 4 14 14 16 15 20 19 22 25 19 6 5 5 5 2 1 3 5 6 6 11 5 6 15 21 15 10 16 10 20 16
12 11 13 15 15 16 16 14 13 12 9 8 9 10 10 9 11 10 3 1 9 13 4 6 8 8 6 15 19 16 13 22 17 18 7 9 6 11 2 4 4 9 9 11 11 12 17 22 13 10 9 12 20 23
13 13 14 16 15 17 14 13 12 9 8 10 9 9 8 8 10 15 11 2 8 10 4 3 4 7 2 9 11 15 18 16 12 15 3 5 9 10 4 10 19 24 21 17 20 19 18 13 4 14 17 18 19 19
16 16 15 15 15 14 11 8 4 3 5 4 2 4 5 7 6 6 11 6 4 6 3 3 3 4 15 2 9 9 11 2 7 4 7 3 3 5 11 21 22 18 13 10 13 17 9 9 4 6 11 16 23 39
14 15 13 14 12 10 8 3 1 3 5 6 6 3 1 5 3 5 8 2 3 5 6 5 5 3 9 8 2 7 6 4 2 6 9 4 4 27 31 26 27 28 16 17 13 16 14 15 7 14 12 13 22 15
14 12 15 13 11 11 4 6 3 2 4 4 1 1 0 9 4 4 3 4 5 3 6 7 13 6 8 2 3 3 3 2 3 4 5 3 4 16 40 48 45 40 31 27 21 22 19 19 5 11 10 12 8 9
16 13 11 13 12 7 4 6 6 5 4 3 3 3 8 3 3 2 3 3 4 4 5 5 8 11 6 5 2 3 2 0 5 0 3 3 5 17 21 26 36 44 28 15 13 12 6 18 11 4 9 1 19 18
15 11 8 10 9 4 3 7 7 8 5 5 2 1 1 2 2 3 4 3 3 4 5 6 2 6 7 4 4 2 1 4 9 1 4 5 15 17 23 28 26 27 21 23 17 16 25 26 15 6 6 23 52 26
17 9 7 8 6 4 6 9 11 10 4 2 2 1 3 4 4 4 4 4 8 10 19 13 5 7 7 4 3 2 4 2 2 3 5 3 14 18 21 31 26 21 20 26 23 25 27 27 22 21 15 23 18 9
18 12 6 4 1 6 9 10 12 11 2 3 3 3 6 12 8 8 17 8 8 14 12 2 3 5 2 2 3 1 1 3 5 5 3 16 20 20 16 12 22 21 26 26 26 27 28 30 27 35 32 5 15 11
19 14 6 5 4 8 8 6 7 7 2 3 6 4 12 7 5 5 7 6 7 7 5 1 2 3 4 3 2 5 3 3 2 3 9 16 22 18 16 12 17 22 31 33 32 29 31 34 32 28 37 32 26 15
11 10 3 7 6 7 7 8 6 4 4 4 7 12 20 19 14 8 10 11 6 3 1 2 2 5 3 2 3 3 4 4 1 9 13 17 20 17 12 13 10 15 21 23 25 26 31 31 32 36 40 43 29 25
15 6 8 11 10 7 8 5 2 4 5 9 7 14 14 14 15 17 17 10 5 6 3 4 3 3 4 3 2 4 7 5 10 13 14 14 13 13 11 12 13 12 20 21 27 34 35 37 38 38 38 33 32 32
16 7 11 14 15 9 4 5 6 5 9 12 17 21 21 23 23 20 19 18 13 11 3 3 4 4 4 3 3 11 7 8 9 12 12 12 14 13 10 13 12 14 20 24 25 26 33 35 35 36 32 32 33 34
6 15 16 14 20 7 4 4 5 6 5 5 15 22 18 17 23 22 20 17 12 7 6 3 4 6 4 9 11 11 10 10 12 13 13 11 11 11 11 10 13 10 17 20 25 30 32 30 25 28 33 36 35 32
8 18 17 15 17 6 4 3 6 6 8 7 12 13 11 13 13 11 7 5 10 6 5 13 18 15 11 12 13 14 14 13 13 13 15 19 16 16 12 9 17 19 20 23 27 27 28 28 28 29 34 35 31 28
11 19 16 9 3 7 6 7 6 5 5 9 11 8 8 5 4 2 4 5 5 7 5 5 12 15 19 20 20 21 21 21 21 21 20 20 21 18 15 12 10 19 27 27 27 33 34 30 28 31 35 36 34 28
21 16 8 5 4 6 6 5 4 4 3 4 3 3 3 3 3 4 3 4 5 6 9 15 19 18 20 22 23 24 22 23 27 27 24 20 19 18 17 13 11 16 21 27 29 31 32 33 31 31 31 33 31 31
13 9 6 9 10 4 4 3 4 5 5 4 2 3 2 2 3 2 3 4 6 10 16 14 14 18 18 20 21 23 23 20 20 18 16 16 16 14 9 8 14 23 9 25 27 32 34 30 26 26 29 26 30 32
4 6 6 6 8 5 7 6 5 4 3 3 2 2 1 1 1 2 2 4 7 17 15 12 13 16 13 15 17 16 13 18 17 9 8 11 10 11 8 8 20 29 27 34 18 25 28 25 23 20 18 22 24 22
4 9 10 15 7 6 7 5 5 5 3 3 1 1 1 1 2 4 3 6 16 10 9 10 13 18 6 8 20 25 16 14 16 15 12 14 18 13 10 18 22 26 34 34 32 25 22 17 15 15 17 18 20 22
3 2 6 9 5 6 2 3 4 3 2 2 2 2 2 0 3 4 9 7 4 1 4 4 13 22 17 14 18 28 25 22 21 23 18 14 16 19 26 22 19 18 23 22 17 19 19 21 19 20 19 21 21 21
3 4 4 9 4 6 3 4 4 3 2 3 1 5 3 4 3 3 3 12 17 20 24 20 19 21 19 17 16 17 21 21 23 25 24 22 21 18 19 18 17 17 11 10 13 13 13 13 17 17 16 16 17 16
3 5 9 8 7 5 6 5 6 6 5 5 3 1 1 3 5 11 16 18 19 20 20 21 21 22 24 25 23 18 17 20 26 25 24 20 17 15 15 15 14 13 11 10 10 11 10 10 10 8 8 10 10 11
4 3 2 5 3 4 7 6 13 17 18 14 6 4 3 8 11 12 16 20 22 20 25 26 19 18 20 18 20 28 27 23 22 23 23 22 19 15 16 17 9 6 7 6 5 5 5 6 6 6 7 9 10 13
5 4 1 0 2 3 5 7 9 8 11 10 7 6 8 11 18 15 16 21 17 16 18 17 17 15 14 18 19 15 18 16 14 14 11 8 4 2 3 5 5 5 5 7 7 3 3 6 7 6 7 10 12 12
5 3 3 2 3 5 4 6 8 9 4 0 1 2 5 10 19 25 22 15 15 18 17 15 15 15 15 17 17 15 14 13 14 14 12 10 9 7 6 5 4 4 5 4 3 3 2 4 7 8 7 7 8 6
5 10 5 3 3 2 3 2 3 4 7 9 5 5 20 23 14 27 18 12 13 14 14 13 12 13 12 11 12 13 11 10 9 10 11 13 11 13 15 18 15 5 6 7 6 3 1 1 2 4 4 3 2 2
Wind_Direction
296 292 291 291 292 290 289 292 291 290 288 285 283 285 279 276 275 260 254 209 260 267 274 266 272 291 292 283 323 318 342 357 16 41 125 217 165 242 339 264 304 182 135 167 82 1 267 358 353 2 319 183 144 141
309 307 303 298 295 292 291 290 288 287 287 285 277 269 263 262 261 257 263 229 260 273 262 268 258 254 248 250 275 295 290 292 19 33 349 320 336 22 80 264 342 339 185 184 150 216 258 305 279 1 7 316 293 150
308 303 306 306 305 302 300 294 286 281 279 280 270 258 256 253 250 252 264 272 279 287 289 270 265 273 263 253 241 242 271 156 54 2 307 272 326 92 19 294 314 348 343 81 28 265 277 303 13 25 13 21 6 188
312 308 305 300 305 302 296 293 288 280 275 269 267 254 251 249 245 249 255 259 254 277 271 284 254 245 212 222 217 229 242 266 290 318 278 262 263 30 235 238 179 229 339 149 291 288 323 274 337 348 341 350 23 159
333 333 327 315 309 309 302 296 288 281 275 264 258 252 246 247 246 251 257 250 232 240 291 299 305 270 255 234 227 227 241 245 262 268 293 257 278 24 322 230 253 190 186 168 220 221 213 271 314 339 324 345 3 101
329 326 337 340 330 323 321 300 280 282 277 261 253 246 245 252 234 243 284 250 227 228 298 306 300 285 231 215 217 230 231 229 221 195 210 224 258 44 275 260 264 219 212 214 229 235 267 280 296 307 279 341 339 346
326 324 324 327 332 332 320 310 306 262 268 240 259 240 232 237 220 196 213 276 194 188 262 295 285 282 273 228 219 231 224 221 218 227 219 242 287 330 245 221 255 217 278 241 261 270 270 272 269 276 290 297 325 317
324 324 320 324 323 330 327 312 303 291 236 246 258 236 215 237 229 226 215 33 161 186 239 264 277 292 211 188 195 226 215 212 214 212 208 189 216 207 247 243 259 271 257 236 253 253 248 264 202 248 267 268 289 324
324 318 316 317 319 327 330 335 13 179 273 182 160 177 206 191 199 224 231 199 115 212 257 254 272 287 346 2 177 175 190 136 231 182 204 183 231 214 224 223 243 248 231 250 254 222 233 240 135 166 182 178 220 272
341 345 334 326 324 327 320 301 3 60 126 134 146 161 176 164 155 138 157 160 210 224 232 243 253 279 331 335 288 141 176 209 211 228 188 179 239 239 240 238 241 247 267 272 229 234 255 270 304 19 186 189 212 251
328 320 330 330 320 331 274 241 221 164 140 144 96 344 39 146 122 173 172 195 195 248 229 236 229 231 272 254 290 238 196 198 187 248 155 221 241 231 241 238 239 246 256 266 279 257 266 264 236 357 312 257 258 245
325 330 325 327 325 309 229 216 208 186 156 135 120 15 134 175 165 204 207 216 211 242 214 207 231 209 241 239 258 282 248 76 234 76 155 248 238 246 257 253 248 240 243 245 215 215 181 187 200 230 169 343 273 245
330 323 321 340 347 352 199 206 190 171 165 162 127 65 354 178 189 202 197 220 247 226 236 225 230 202 213 241 288 274 215 247 322 227 221 230 252 263 256 256 257 249 227 205 189 166 146 128 121 130 174 278 287 236
346 308 314 336 359 64 126 143 152 160 140 195 185 281 223 202 246 196 226 209 239 282 303 306 318 204 205 171 205 238 235 48 304 277 243 262 329 313 291 248 243 240 190 183 178 165 160 157 161 160 180 342 125 180
351 333 294 287 313 129 156 151 165 158 168 235 205 240 218 230 238 211 267 268 268 307 340 213 329 259 245 226 200 243 232 238 219 236 243 345 345 335 305 283 232 237 201 190 187 178 169 163 150 129 127 224 27 46
340 340 273 213 202 170 161 167 172 192 247 242 231 260 270 284 284 258 292 313 334 309 295 256 226 277 249 207 189 216 220 231 278 264 334 352 1 0 337 306 233 231 202 195 192 190 184 185 189 189 181 195 177 203
312 332 261 197 202 181 180 194 184 219 239 245 249 253 260 280 277 302 310 320 315 286 220 55 263 233 288 216 226 220 216 241 249 4 10 4 1 356 332 316 279 214 195 185 181 189 183 189 193 187 178 179 190 192
305 284 227 195 191 175 175 172 250 259 250 251 254 266 280 289 294 295 302 291 276 212 194 218 229 249 245 223 241 288 269 5 27 15 12 8 5 351 333 314 296 263 209 187 178 178 178 178 181 180 184 181 176 173
310 257 209 189 179 172 194 200 217 259 248 260 268 276 285 287 288 286 285 288 276 224 215 242 238 217 230 258 23 327 320 330 344 341 345 344 357 343 338 317 292 244 217 202 181 173 170 171 175 179 180 181 175 174
305 179 185 200 188 173 201 226 214 259 265 271 280 286 286 275 284 282 274 268 259 192 200 219 229 242 293 302 287 294 311 310 310 314 316 322 334 341 338 268 259 231 212 208 199 190 180 173 179 179 178 180 178 172
139 160 169 178 184 192 202 228 237 249 278 269 282 295 284 279 270 267 261 212 198 212 224 228 242 259 261 269 278 285 283 290 292 290 291 295 304 307 319 306 229 214 213 196 191 185 183 188 185 186 186 183 185 186
158 157 165 171 138 185 242 231 242 286 265 264 289 262 260 281 275 252 282 240 230 228 229 269 282 291 285 282 286 282 278 276 274 276 275 275 279 291 284 289 288 233 214 208 207 193 191 191 195 191 189 188 187 190
160 164 158 149 176 212 256 233 231 231 252 251 240 243 235 252 251 302 258 256 265 249 273 295 296 291 287 283 284 284 279 273 269 270 274 267 268 277 279 276 256 222 207 217 219 213 202 197 195 194 195 193 192 187
177 176 200 191 191 208 207 236 246 251 248 235 236 264 243 258 308 274 260 254 257 299 310 305 302 299 297 294 287 287 281 271 263 259 260 257 263 266 269 249 204 192 199 212 216 207 200 197 190 201 205 200 188 189
193 208 195 198 200 216 195 190 211 226 253 216 247 241 266 237 275 262 257 272 292 320 317 308 312 314 291 294 311 311 286 237 234 244 253 241 244 225 207 201 200 193 180 208 208 200 197 199 191 186 186 193 202 203
250 202 198 190 185 208 193 182 214 210 207 223 232 344 215 266 279 284 268 297 314 339 14 350 343 0 42 323 338 357 50 124 140 132 108 108 102 85 163 155 154 175 195 201 208 199 179 176 183 178 180 184 193 199
275 311 350 338 321 320 295 102 156 197 226 171 168 184 216 10 1 321 344 16 19 247 195 277 327 328 344 22 61 59 93 104 107 99 95 100 99 68 81 104 104 114 167 175 184 198 185 178 174 178 180 183 187 194
291 307 299 339 4 2 5 350 6 47 48 62 94 23 31 19 357 312 264 332 333 329 334 359 28 43 57 79 86 77 81 85 86 92 93 92 88 85 85 90 101 115 135 141 150 154 163 167 173 182 186 190 202 215
296 310 337 357 12 36 24 10 1 7 113 93 88 74 227 229 258 312 337 338 351 0 21 50 84 93 76 76 80 95 105 94 94 93 90 94 101 97 93 94 100 114 128 138 155 163 167 175 185 192 205 203 217 217
290 308 336 3 31 28 29 78 80 84 112 116 93 82 44 25 24 20 21 25 27 67 68 67 88 82 72 66 74 73 91 105 103 101 97 86 83 88 75 70 110 117 106 120 146 150 130 146 172 207 217 212 216 222
274 255 309 26 79 74 118 126 120 107 94 101 82 50 46 39 38 43 47 42 70 71 56 56 62 72 65 62 63 72 75 74 78 79 79 82 95 116 72 74 71 72 86 91 86 167 223 225 222 225 231 238 241 241
322 281 167 136 165 177 157 178 128 132 124 139 149 33 16 64 55 43 42 58 64 59 61 60 63 58 50 52 53 54 58 66 62 58 57 66 67 58 40 10 327 301 281 247 186 176 189 220 222 237 251 232 240 256
29 31 89 47 14 71 32 106 70 146 160 113 79 40 79 71 48 25 39 54 56 47 42 41 35 37 57 43 40 42 50 55 48 46 36 34 22 20 15 16 18 341 265 252 240 245 281 20 116 120 140 166 209 243